Location: Buckeye Ditch
(40.9104°N, 122.9517°W)
Time: 19:38:33
(UTC+00:00)

Vanguard 1 - Pass Details

Date: 27 May 2025
Orbit: 649 x 3822 km, 34.3° (Epoch: 15 June)

Event Time Altitude Azimuth Distance (km) Brightness Sun altitude
Rises 04:09:45 0° 277° (W) 7,093 15.7 -6.6°
Reaches altitude 10° 04:15:20 10° 273° (W) 5,610 14.9 -7.5°
Maximum altitude 04:29:20 47° 207° (SSW) 2,248 11.8 -9.6°
Enters shadow 04:36:35 13° 137° (SE) 3,044 11.9 -10.6°
